"Sample Date","Sample Time","Sensor Name","Sample Value","Units","Flow Rate","Sample Interval","Sample Volume","Laser Status","Number Channels","Micron Size 0","Counts/Channel 0","Micron Size 1","Counts/Channel 1","Micron Size 2","Counts/Channel 2","Micron Size 3","Counts/Channel 3","Micron Size 4","Counts/Channel 4","Micron Size 5","Counts/Channel 5","Micron Size 6","Counts/Channel 6","Micron Size 7","Counts/Channel 7","Micron Size 8","Counts/Channel 8","Micron Size 9","Counts/Channel 9","Micron Size 10","Counts/Channel 10","Micron Size 11","Counts/Channel 11","Micron Size 12","Counts/Channel 12","Micron Size 13","Counts/Channel 13","Micron Size 14","Counts/Channel 14","Micron Size 15","Counts/Channel 15","Micron Size 16","Counts/Channel 16","Micron Size 17","Counts/Channel 17","Micron Size 18","Counts/Channel 18","Micron Size 19","Counts/Channel 19","Micron Size 20","Counts/Channel 20","Micron Size 21","Counts/Channel 21","Micron Size 22","Counts/Channel 22","Micron Size 23","Counts/Channel 23","Micron Size 24","Counts/Channel 24","Micron Size 25","Counts/Channel 25","Micron Size 26","Counts/Channel 26","Micron Size 27","Counts/Channel 27","Micron Size 28","Counts/Channel 28","Micron Size 29","Counts/Channel 29","Micron Size 30","Counts/Channel 30","Micron Size 31","Counts/Channel 31"
"07/07/06","14:00:02","AMMA06",40620.000,"cc",28287.916,6.00,2828.792,1,6,0.100,18384.000,0.200,18451.000,0.300,3092.000,0.500,398.000,1.000,295.000,5.000,0
"07/07/06","14:00:08","AMMA06",41016.000,"cc",28370.414,6.00,2837.042,1,6,0.100,18324.000,0.200,18771.000,0.300,3179.000,0.500,463.000,1.000,279.000,5.000,0
"07/07/06","14:00:14","AMMA06",40487.000,"cc",28291.055,6.00,2829.106,1,6,0.100,18185.000,0.200,18318.000,0.300,3286.000,0.500,416.000,1.000,282.000,5.000,0
"07/07/06","14:00:20","AMMA06",40242.000,"cc",28326.143,6.00,2832.615,1,6,0.100,18057.000,0.200,18416.000,0.300,3092.000,0.500,404.000,1.000,273.000,5.000,0
"07/07/06","14:00:26","AMMA06",40479.000,"cc",28355.902,6.00,2835.590,1,6,0.100,17988.000,0.200,18730.000,0.300,3078.000,0.500,395.000,1.000,288.000,5.000,0
"07/07/06","14:00:32","AMMA06",40608.000,"cc",28326.152,6.00,2832.616,1,6,0.100,18080.000,0.200,18597.000,0.300,3216.000,0.500,447.000,1.000,268.000,5.000,0
"07/07/06","14:00:38","AMMA06",40606.000,"cc",28320.098,6.00,2832.010,1,6,0.100,18157.000,0.200,18601.000,0.300,3140.000,0.500,414.000,1.000,293.000,5.000,1.000
"07/07/06","14:00:44","AMMA06",40415.000,"cc",28337.207,6.00,2833.721,1,6,0.100,17898.000,0.200,18705.000,0.300,3090.000,0.500,445.000,1.000,277.000,5.000,0
"07/07/06","14:00:50","AMMA06",41702.000,"cc",28308.531,6.00,2830.853,1,6,0.100,18504.000,0.200,19042.000,0.300,3349.000,0.500,531.000,1.000,276.000,5.000,0
"07/07/06","14:00:56","AMMA06",41385.000,"cc",28252.445,6.00,2825.245,1,6,0.100,18445.000,0.200,18847.000,0.300,3308.000,0.500,484.000,1.000,301.000,5.000,0
"07/07/06","14:01:02","AMMA06",40671.000,"cc",28343.477,6.00,2834.348,1,6,0.100,18094.000,0.200,18614.000,0.300,3184.000,0.500,511.000,1.000,268.000,5.000,0
"07/07/06","14:01:08","AMMA06",40879.000,"cc",28363.053,6.00,2836.305,1,6,0.100,18391.000,0.200,18581.000,0.300,3204.000,0.500,420.000,1.000,283.000,5.000,0
"07/07/06","14:01:14","AMMA06",41590.000,"cc",28282.262,6.00,2828.226,1,6,0.100,18590.000,0.200,18919.000,0.300,3265.000,0.500,533.000,1.000,283.000,5.000,0
"07/07/06","14:01:20","AMMA06",41427.000,"cc",28350.748,6.00,2835.075,1,6,0.100,18561.000,0.200,18729.000,0.300,3230.000,0.500,542.000,1.000,364.000,5.000,1.000
"07/07/06","14:01:26","AMMA06",41923.000,"cc",28333.897,6.00,2833.390,1,6,0.100,18702.000,0.200,18938.000,0.300,3386.000,0.500,541.000,1.000,356.000,5.000,0
"07/07/06","14:01:32","AMMA06",41917.000,"cc",28294.137,6.00,2829.414,1,6,0.100,18667.000,0.200,18948.000,0.300,3378.000,0.500,548.000,1.000,376.000,5.000,0
"07/07/06","14:01:38","AMMA06",42949.000,"cc",28340.465,6.00,2834.047,1,6,0.100,19172.000,0.200,19152.000,0.300,3553.000,0.500,653.000,1.000,419.000,5.000,0
"07/07/06","14:01:44","AMMA06",41080.000,"cc",28306.621,6.00,2830.662,1,6,0.100,18231.000,0.200,18704.000,0.300,3309.000,0.500,534.000,1.000,302.000,5.000,0
"07/07/06","14:01:50","AMMA06",41043.000,"cc",28335.602,6.00,2833.560,1,6,0.100,18451.000,0.200,18564.000,0.300,3240.000,0.500,497.000,1.000,291.000,5.000,0
"07/07/06","14:01:56","AMMA06",40965.000,"cc",28325.525,6.00,2832.553,1,6,0.100,18329.000,0.200,18596.000,0.300,3261.000,0.500,482.000,1.000,297.000,5.000,0
"07/07/06","14:02:02","AMMA06",41147.000,"cc",28292.947,6.00,2829.295,1,6,0.100,18387.000,0.200,18675.000,0.300,3250.000,0.500,513.000,1.000,322.000,5.000,0
"07/07/06","14:02:08","AMMA06",41034.000,"cc",28305.346,6.00,2830.535,1,6,0.100,18156.000,0.200,18864.000,0.300,3279.000,0.500,456.000,1.000,279.000,5.000,0
"07/07/06","14:02:14","AMMA06",40843.000,"cc",28319.922,6.00,2831.992,1,6,0.100,18160.000,0.200,18732.000,0.300,3181.000,0.500,476.000,1.000,294.000,5.000,0
"07/07/06","14:02:20","AMMA06",40847.000,"cc",28294.453,6.00,2829.446,1,6,0.100,18096.000,0.200,18966.000,0.300,3068.000,0.500,433.000,1.000,284.000,5.000,0
"07/07/06","14:02:26","AMMA06",41089.000,"cc",28342.402,6.00,2834.241,1,6,0.100,18414.000,0.200,18639.000,0.300,3259.000,0.500,484.000,1.000,293.000,5.000,0
"07/07/06","14:02:32","AMMA06",41114.000,"cc",28328.209,6.00,2832.821,1,6,0.100,18035.000,0.200,19005.000,0.300,3326.000,0.500,458.000,1.000,290.000,5.000,0
"07/07/06","14:02:38","AMMA06",40931.000,"cc",28323.027,6.00,2832.303,1,6,0.100,18095.000,0.200,18813.000,0.300,3266.000,0.500,445.000,1.000,312.000,5.000,0
"07/07/06","14:02:44","AMMA06",40645.000,"cc",28304.100,6.00,2830.410,1,6,0.100,17861.000,0.200,18789.000,0.300,3321.000,0.500,400.000,1.000,274.000,5.000,0
"07/07/06","14:02:50","AMMA06",40638.000,"cc",28304.723,6.00,2830.472,1,6,0.100,17973.000,0.200,18680.000,0.300,3300.000,0.500,408.000,1.000,277.000,5.000,0
"07/07/06","14:02:56","AMMA06",42124.000,"cc",28333.633,6.00,2833.364,1,6,0.100,18518.000,0.200,18997.000,0.300,3633.000,0.500,622.000,1.000,354.000,5.000,0
"07/07/06","14:03:02","AMMA06",41976.000,"cc",28292.895,6.00,2829.290,1,6,0.100,18415.000,0.200,18967.000,0.300,3601.000,0.500,635.000,1.000,358.000,5.000,0
"07/07/06","14:03:08","AMMA06",41124.000,"cc",28329.635,6.00,2832.964,1,6,0.100,17885.000,0.200,18975.000,0.300,3481.000,0.500,480.000,1.000,303.000,5.000,0
"07/07/06","14:03:14","AMMA06",41331.000,"cc",28293.607,6.00,2829.361,1,6,0.100,18045.000,0.200,18978.000,0.300,3511.000,0.500,515.000,1.000,282.000,5.000,0
"07/07/06","14:03:20","AMMA06",40554.000,"cc",28407.996,6.00,2840.800,1,6,0.100,17559.000,0.200,19006.000,0.300,3317.000,0.500,389.000,1.000,283.000,5.000,0
"07/07/06","14:03:26","AMMA06",40634.000,"cc",28333.354,6.00,2833.335,1,6,0.100,17552.000,0.200,19049.000,0.300,3312.000,0.500,427.000,1.000,294.000,5.000,0
"07/07/06","14:03:32","AMMA06",40661.000,"cc",28297.545,6.00,2829.755,1,6,0.100,17447.000,0.200,19099.000,0.300,3439.000,0.500,411.000,1.000,265.000,5.000,0
"07/07/06","14:03:38","AMMA06",43042.000,"cc",28279.813,6.00,2827.981,1,6,0.100,18369.000,0.200,19524.000,0.300,4033.000,0.500,743.000,1.000,373.000,5.000,0
"07/07/06","14:03:44","AMMA06",42261.000,"cc",28354.557,6.00,2835.456,1,6,0.100,17968.000,0.200,19471.000,0.300,3864.000,0.500,584.000,1.000,374.000,5.000,0
"07/07/06","14:03:50","AMMA06",41499.000,"cc",28292.270,6.00,2829.227,1,6,0.100,17762.000,0.200,19386.000,0.300,3554.000,0.500,496.000,1.000,301.000,5.000,0
"07/07/06","14:03:56","AMMA06",41192.000,"cc",28338.871,6.00,2833.887,1,6,0.100,17749.000,0.200,19066.000,0.300,3595.000,0.500,460.000,1.000,322.000,5.000,0
"07/07/06","14:04:02","AMMA06",41154.000,"cc",28285.307,6.00,2828.531,1,6,0.100,17395.000,0.200,19308.000,0.300,3677.000,0.500,490.000,1.000,284.000,5.000,0
"07/07/06","14:04:08","AMMA06",40910.000,"cc",28305.131,6.00,2830.513,1,6,0.100,17212.000,0.200,19199.000,0.300,3710.000,0.500,455.000,1.000,334.000,5.000,0
"07/07/06","14:04:14","AMMA06",40781.000,"cc",28318.365,6.00,2831.837,1,6,0.100,17370.000,0.200,19162.000,0.300,3507.000,0.500,440.000,1.000,302.000,5.000,0
"07/07/06","14:04:20","AMMA06",40593.000,"cc",28316.445,6.00,2831.645,1,6,0.100,17202.000,0.200,19177.000,0.300,3528.000,0.500,409.000,1.000,277.000,5.000,0
"07/07/06","14:04:26","AMMA06",40490.000,"cc",28316.016,6.00,2831.602,1,6,0.100,17179.000,0.200,19049.000,0.300,3619.000,0.500,401.000,1.000,242.000,5.000,0
"07/07/06","14:04:32","AMMA06",40464.000,"cc",28315.955,6.00,2831.596,1,6,0.100,17087.000,0.200,19200.000,0.300,3480.000,0.500,400.000,1.000,297.000,5.000,0
"07/07/06","14:04:38","AMMA06",40452.000,"cc",28322.066,6.00,2832.207,1,6,0.100,17092.000,0.200,19007.000,0.300,3598.000,0.500,462.000,1.000,293.000,5.000,0
"07/07/06","14:04:44","AMMA06",40848.000,"cc",28325.137,6.00,2832.514,1,6,0.100,17437.000,0.200,19052.000,0.300,3645.000,0.500,401.000,1.000,313.000,5.000,0
"07/07/06","14:04:50","AMMA06",39998.000,"cc",28303.705,6.00,2830.371,1,6,0.100,17123.000,0.200,18686.000,0.300,3471.000,0.500,396.000,1.000,322.000,5.000,0
"07/07/06","14:04:56","AMMA06",40417.000,"cc",28361.676,6.00,2836.168,1,6,0.100,16866.000,0.200,19273.000,0.300,3553.000,0.500,435.000,1.000,290.000,5.000,0
"07/07/06","14:05:02","AMMA06",40652.000,"cc",28249.410,6.00,2824.941,1,6,0.100,17214.000,0.200,19107.000,0.300,3575.000,0.500,452.000,1.000,304.000,5.000,0
"07/07/06","14:05:08","AMMA06",41738.000,"cc",28360.625,6.00,2836.063,1,6,0.100,17518.000,0.200,19518.000,0.300,3792.000,0.500,538.000,1.000,372.000,5.000,0
"07/07/06","14:05:14","AMMA06",43168.000,"cc",28324.272,6.00,2832.427,1,6,0.100,18211.000,0.200,19653.000,0.300,4201.000,0.500,710.000,1.000,393.000,5.000,0
"07/07/06","14:05:20","AMMA06",42108.000,"cc",28271.473,6.00,2827.148,1,6,0.100,17719.000,0.200,19570.000,0.300,3858.000,0.500,584.000,1.000,376.000,5.000,1.000
"07/07/06","14:05:26","AMMA06",40817.000,"cc",28303.426,6.00,2830.343,1,6,0.100,17173.000,0.200,19240.000,0.300,3640.000,0.500,476.000,1.000,288.000,5.000,0
"07/07/06","14:05:32","AMMA06",40378.000,"cc",28324.789,6.00,2832.479,1,6,0.100,17329.000,0.200,18931.000,0.300,3388.000,0.500,434.000,1.000,296.000,5.000,0
"07/07/06","14:05:38","AMMA06",40749.000,"cc",28345.231,6.00,2834.523,1,6,0.100,17282.000,0.200,19206.000,0.300,3535.000,0.500,438.000,1.000,288.000,5.000,0
"07/07/06","14:05:44","AMMA06",40501.000,"cc",28311.160,6.00,2831.116,1,6,0.100,17298.000,0.200,18936.000,0.300,3557.000,0.500,420.000,1.000,290.000,5.000,0
"07/07/06","14:05:50","AMMA06",40589.000,"cc",28306.459,6.00,2830.646,1,6,0.100,17116.000,0.200,19291.000,0.300,3495.000,0.500,414.000,1.000,272.000,5.000,1.000
"07/07/06","14:05:56","AMMA06",40551.000,"cc",28322.279,6.00,2832.228,1,6,0.100,17422.000,0.200,18868.000,0.300,3583.000,0.500,418.000,1.000,260.000,5.000,0
"07/07/06","14:06:02","AMMA06",41039.000,"cc",28295.297,6.00,2829.530,1,6,0.100,17555.000,0.200,19170.000,0.300,3568.000,0.500,459.000,1.000,287.000,5.000,0
"07/07/06","14:06:08","AMMA06",41270.000,"cc",28321.494,6.00,2832.150,1,6,0.100,17585.000,0.200,19153.000,0.300,3674.000,0.500,558.000,1.000,300.000,5.000,0
"07/07/06","14:06:14","AMMA06",41323.000,"cc",28315.570,6.00,2831.557,1,6,0.100,17739.000,0.200,19159.000,0.300,3584.000,0.500,495.000,1.000,346.000,5.000,0
"07/07/06","14:06:20","AMMA06",41225.000,"cc",28298.584,6.00,2829.859,1,6,0.100,17563.000,0.200,19363.000,0.300,3484.000,0.500,502.000,1.000,313.000,5.000,0
"07/07/06","14:06:26","AMMA06",41592.000,"cc",28349.031,6.00,2834.903,1,6,0.100,17861.000,0.200,19099.000,0.300,3774.000,0.500,565.000,1.000,293.000,5.000,0
"07/07/06","14:06:32","AMMA06",41112.000,"cc",28315.641,6.00,2831.564,1,6,0.100,17802.000,0.200,19012.000,0.300,3464.000,0.500,508.000,1.000,326.000,5.000,0
"07/07/06","14:06:38","AMMA06",40733.000,"cc",28262.387,6.00,2826.239,1,6,0.100,17711.000,0.200,18779.000,0.300,3449.000,0.500,463.000,1.000,331.000,5.000,0
"07/07/06","14:06:44","AMMA06",40369.000,"cc",28332.197,6.00,2833.220,1,6,0.100,17372.000,0.200,18989.000,0.300,3336.000,0.500,406.000,1.000,266.000,5.000,0
"07/07/06","14:06:50","AMMA06",40982.000,"cc",28352.291,6.00,2835.229,1,6,0.100,17861.000,0.200,19003.000,0.300,3366.000,0.500,448.000,1.000,304.000,5.000,0
"07/07/06","14:06:56","AMMA06",40635.000,"cc",28267.205,6.00,2826.721,1,6,0.100,17728.000,0.200,18788.000,0.300,3361.000,0.500,478.000,1.000,280.000,5.000,0
"07/07/06","14:07:02","AMMA06",41634.000,"cc",28340.713,6.00,2834.072,1,6,0.100,18204.000,0.200,18922.000,0.300,3607.000,0.500,560.000,1.000,341.000,5.000,0
"07/07/06","14:07:08","AMMA06",40957.000,"cc",28333.867,6.00,2833.387,1,6,0.100,17932.000,0.200,18809.000,0.300,3381.000,0.500,516.000,1.000,319.000,5.000,0
"07/07/06","14:07:14","AMMA06",40992.000,"cc",28284.922,6.00,2828.492,1,6,0.100,17945.000,0.200,18796.000,0.300,3437.000,0.500,505.000,1.000,309.000,5.000,0
"07/07/06","14:07:20","AMMA06",41107.000,"cc",28362.992,6.00,2836.299,1,6,0.100,18072.000,0.200,18801.000,0.300,3446.000,0.500,500.000,1.000,288.000,5.000,0
"07/07/06","14:07:26","AMMA06",40708.000,"cc",28366.900,6.00,2836.690,1,6,0.100,18019.000,0.200,18571.000,0.300,3309.000,0.500,502.000,1.000,307.000,5.000,0
"07/07/06","14:07:32","AMMA06",40663.000,"cc",28293.736,6.00,2829.374,1,6,0.100,18161.000,0.200,18534.000,0.300,3238.000,0.500,420.000,1.000,310.000,5.000,0
"07/07/06","14:07:38","AMMA06",39801.000,"cc",28321.514,6.00,2832.152,1,6,0.100,17702.000,0.200,18251.000,0.300,3113.000,0.500,441.000,1.000,294.000,5.000,0
"07/07/06","14:07:44","AMMA06",40228.000,"cc",28319.527,6.00,2831.953,1,6,0.100,17849.000,0.200,18478.000,0.300,3164.000,0.500,455.000,1.000,282.000,5.000,0
"07/07/06","14:07:50","AMMA06",39946.000,"cc",28306.410,6.00,2830.641,1,6,0.100,17432.000,0.200,18593.000,0.300,3203.000,0.500,432.000,1.000,286.000,5.000,0
"07/07/06","14:07:56","AMMA06",40278.000,"cc",28287.699,6.00,2828.770,1,6,0.100,17740.000,0.200,18531.000,0.300,3249.000,0.500,466.000,1.000,292.000,5.000,0
"07/07/06","14:08:02","AMMA06",41524.000,"cc",28330.541,6.00,2833.054,1,6,0.100,18225.000,0.200,18869.000,0.300,3483.000,0.500,576.000,1.000,371.000,5.000,0
"07/07/06","14:08:08","AMMA06",41930.000,"cc",28305.711,6.00,2830.571,1,6,0.100,18609.000,0.200,18815.000,0.300,3533.000,0.500,614.000,1.000,358.000,5.000,1.000
"07/07/06","14:08:14","AMMA06",41802.000,"cc",28322.322,6.00,2832.232,1,6,0.100,18391.000,0.200,18993.000,0.300,3529.000,0.500,557.000,1.000,332.000,5.000,0
"07/07/06","14:08:20","AMMA06",41388.000,"cc",28344.596,6.00,2834.460,1,6,0.100,18259.000,0.200,18806.000,0.300,3386.000,0.500,601.000,1.000,336.000,5.000,0
"07/07/06","14:08:26","AMMA06",41326.000,"cc",28286.539,6.00,2828.654,1,6,0.100,18125.000,0.200,18798.000,0.300,3407.000,0.500,614.000,1.000,382.000,5.000,0
"07/07/06","14:08:32","AMMA06",41845.000,"cc",28320.338,6.00,2832.034,1,6,0.100,18268.000,0.200,19075.000,0.300,3519.000,0.500,626.000,1.000,357.000,5.000,0
"07/07/06","14:08:38","AMMA06",40607.000,"cc",28292.525,6.00,2829.253,1,6,0.100,17807.000,0.200,18795.000,0.300,3199.000,0.500,492.000,1.000,314.000,5.000,0
"07/07/06","14:08:44","AMMA06",40380.000,"cc",28310.713,6.00,2831.072,1,6,0.100,17804.000,0.200,18607.000,0.300,3197.000,0.500,480.000,1.000,292.000,5.000,0
"07/07/06","14:08:50","AMMA06",40648.000,"cc",28354.832,6.00,2835.483,1,6,0.100,18055.000,0.200,18584.000,0.300,3249.000,0.500,472.000,1.000,288.000,5.000,0
"07/07/06","14:08:56","AMMA06",40826.000,"cc",28300.635,6.00,2830.064,1,6,0.100,18083.000,0.200,18679.000,0.300,3233.000,0.500,517.000,1.000,314.000,5.000,0
"07/07/06","14:09:02","AMMA06",41301.000,"cc",28319.887,6.00,2831.989,1,6,0.100,18518.000,0.200,18621.000,0.300,3293.000,0.500,525.000,1.000,344.000,5.000,0
"07/07/06","14:09:08","AMMA06",40945.000,"cc",28359.801,6.00,2835.980,1,6,0.100,18025.000,0.200,18899.000,0.300,3293.000,0.500,448.000,1.000,280.000,5.000,0
"07/07/06","14:09:14","AMMA06",41530.000,"cc",28312.273,6.00,2831.228,1,6,0.100,18396.000,0.200,18795.000,0.300,3372.000,0.500,618.000,1.000,349.000,5.000,0
"07/07/06","14:09:20","AMMA06",41753.000,"cc",28314.785,6.00,2831.479,1,6,0.100,18422.000,0.200,18903.000,0.300,3458.000,0.500,603.000,1.000,367.000,5.000,0
"07/07/06","14:09:26","AMMA06",41323.000,"cc",28343.973,6.00,2834.398,1,6,0.100,18403.000,0.200,18675.000,0.300,3357.000,0.500,563.000,1.000,325.000,5.000,0
"07/07/06","14:09:32","AMMA06",41376.000,"cc",28275.420,6.00,2827.542,1,6,0.100,18338.000,0.200,18703.000,0.300,3386.000,0.500,589.000,1.000,360.000,5.000,0
"07/07/06","14:09:38","AMMA06",41387.000,"cc",28289.440,6.00,2828.944,1,6,0.100,18168.000,0.200,18915.000,0.300,3386.000,0.500,552.000,1.000,366.000,5.000,0
"07/07/06","14:09:44","AMMA06",42209.000,"cc",28309.795,6.00,2830.980,1,6,0.100,18499.000,0.200,19166.000,0.300,3537.000,0.500,636.000,1.000,371.000,5.000,0
"07/07/06","14:09:50","AMMA06",41494.000,"cc",28328.990,6.00,2832.899,1,6,0.100,18213.000,0.200,18803.000,0.300,3493.000,0.500,624.000,1.000,361.000,5.000,0
"07/07/06","14:09:56","AMMA06",41177.000,"cc",28365.221,6.00,2836.522,1,6,0.100,18176.000,0.200,18641.000,0.300,3418.000,0.500,607.000,1.000,335.000,5.000,0
"07/07/06","14:10:02","AMMA06",40109.000,"cc",28297.623,6.00,2829.763,1,6,0.100,17723.000,0.200,18477.000,0.300,3192.000,0.500,435.000,1.000,282.000,5.000,0
"07/07/06","14:10:08","AMMA06",40246.000,"cc",28318.402,6.00,2831.840,1,6,0.100,17770.000,0.200,18547.000,0.300,3189.000,0.500,462.000,1.000,278.000,5.000,0
"07/07/06","14:10:14","AMMA06",40434.000,"cc",28304.150,6.00,2830.415,1,6,0.100,17800.000,0.200,18702.000,0.300,3204.000,0.500,457.000,1.000,271.000,5.000,0
"07/07/06","14:10:20","AMMA06",40641.000,"cc",28310.174,6.00,2831.018,1,6,0.100,17990.000,0.200,18673.000,0.300,3222.000,0.500,440.000,1.000,315.000,5.000,1.000
"07/07/06","14:10:26","AMMA06",40395.000,"cc",28337.957,6.00,2833.796,1,6,0.100,17760.000,0.200,18615.000,0.300,3187.000,0.500,494.000,1.000,339.000,5.000,0
"07/07/06","14:10:32","AMMA06",43901.000,"cc",28304.857,6.00,2830.486,1,6,0.100,19111.000,0.200,19380.000,0.300,4031.000,0.500,942.000,1.000,437.000,5.000,0
"07/07/06","14:10:38","AMMA06",42451.000,"cc",28287.537,6.00,2828.754,1,6,0.100,18661.000,0.200,19110.000,0.300,3628.000,0.500,670.000,1.000,382.000,5.000,0
"07/07/06","14:10:44","AMMA06",42111.000,"cc",28308.815,6.00,2830.882,1,6,0.100,18586.000,0.200,18909.000,0.300,3633.000,0.500,645.000,1.000,338.000,5.000,0
"07/07/06","14:10:50","AMMA06",41045.000,"cc",28331.617,6.00,2833.162,1,6,0.100,18120.000,0.200,18680.000,0.300,3360.000,0.500,542.000,1.000,343.000,5.000,0
"07/07/06","14:10:56","AMMA06",40697.000,"cc",28351.080,6.00,2835.108,1,6,0.100,17887.000,0.200,18626.000,0.300,3363.000,0.500,538.000,1.000,283.000,5.000,0
"07/07/06","14:11:02","AMMA06",41619.000,"cc",28307.207,6.00,2830.721,1,6,0.100,18398.000,0.200,18888.000,0.300,3419.000,0.500,557.000,1.000,357.000,5.000,0
"07/07/06","14:11:08","AMMA06",40974.000,"cc",28334.354,6.00,2833.436,1,6,0.100,18172.000,0.200,18697.000,0.300,3257.000,0.500,550.000,1.000,298.000,5.000,0
"07/07/06","14:11:14","AMMA06",40230.000,"cc",28336.531,6.00,2833.653,1,6,0.100,17711.000,0.200,18542.000,0.300,3214.000,0.500,460.000,1.000,303.000,5.000,0
"07/07/06","14:11:20","AMMA06",41359.000,"cc",28267.332,6.00,2826.733,1,6,0.100,18114.000,0.200,18922.000,0.300,3450.000,0.500,561.000,1.000,312.000,5.000,0
"07/07/06","14:11:26","AMMA06",40677.000,"cc",28295.992,6.00,2829.599,1,6,0.100,17953.000,0.200,18527.000,0.300,3282.000,0.500,570.000,1.000,345.000,5.000,0
"07/07/06","14:11:32","AMMA06",44179.000,"cc",28327.078,6.00,2832.708,1,6,0.100,19275.000,0.200,19556.000,0.300,4035.000,0.500,860.000,1.000,453.000,5.000,0
"07/07/06","14:11:38","AMMA06",42464.000,"cc",28321.639,6.00,2832.164,1,6,0.100,18647.000,0.200,18870.000,0.300,3809.000,0.500,756.000,1.000,382.000,5.000,0
"07/07/06","14:11:44","AMMA06",41667.000,"cc",28314.678,6.00,2831.468,1,6,0.100,18153.000,0.200,18810.000,0.300,3634.000,0.500,678.000,1.000,392.000,5.000,0
"07/07/06","14:11:50","AMMA06",42816.000,"cc",28332.010,6.00,2833.201,1,6,0.100,18611.000,0.200,19176.000,0.300,3837.000,0.500,756.000,1.000,436.000,5.000,0
"07/07/06","14:11:56","AMMA06",42673.000,"cc",28329.184,6.00,2832.919,1,6,0.100,18857.000,0.200,18941.000,0.300,3753.000,0.500,724.000,1.000,398.000,5.000,0
"07/07/06","14:12:02","AMMA06",41879.000,"cc",28312.342,6.00,2831.234,1,6,0.100,18186.000,0.200,18977.000,0.300,3699.000,0.500,653.000,1.000,364.000,5.000,0
"07/07/06","14:12:08","AMMA06",40677.000,"cc",28318.574,6.00,2831.858,1,6,0.100,17683.000,0.200,18618.000,0.300,3522.000,0.500,548.000,1.000,306.000,5.000,0
"07/07/06","14:12:14","AMMA06",40273.000,"cc",28285.068,6.00,2828.507,1,6,0.100,17414.000,0.200,18592.000,0.300,3411.000,0.500,536.000,1.000,320.000,5.000,0
"07/07/06","14:12:20","AMMA06",40144.000,"cc",28333.467,6.00,2833.347,1,6,0.100,17252.000,0.200,18629.000,0.300,3457.000,0.500,483.000,1.000,323.000,5.000,0
"07/07/06","14:12:26","AMMA06",40605.000,"cc",28356.602,6.00,2835.660,1,6,0.100,17524.000,0.200,18749.000,0.300,3480.000,0.500,520.000,1.000,332.000,5.000,0
"07/07/06","14:12:32","AMMA06",40612.000,"cc",28311.295,6.00,2831.130,1,6,0.100,17436.000,0.200,18867.000,0.300,3501.000,0.500,504.000,1.000,304.000,5.000,0
"07/07/06","14:12:38","AMMA06",39978.000,"cc",28332.656,6.00,2833.266,1,6,0.100,17211.000,0.200,18483.000,0.300,3497.000,0.500,478.000,1.000,309.000,5.000,0
"07/07/06","14:12:44","AMMA06",39855.000,"cc",28322.699,6.00,2832.270,1,6,0.100,17253.000,0.200,18590.000,0.300,3272.000,0.500,434.000,1.000,306.000,5.000,0
"07/07/06","14:12:50","AMMA06",40372.000,"cc",28303.766,6.00,2830.377,1,6,0.100,17299.000,0.200,18876.000,0.300,3440.000,0.500,456.000,1.000,301.000,5.000,0
"07/07/06","14:12:56","AMMA06",40059.000,"cc",28298.418,6.00,2829.842,1,6,0.100,17129.000,0.200,18682.000,0.300,3537.000,0.500,411.000,1.000,300.000,5.000,0
"07/07/06","14:13:02","AMMA06",39859.000,"cc",28340.943,6.00,2834.095,1,6,0.100,16945.000,0.200,18714.000,0.300,3474.000,0.500,460.000,1.000,266.000,5.000,0
"07/07/06","14:13:08","AMMA06",39653.000,"cc",28344.295,6.00,2834.430,1,6,0.100,16891.000,0.200,18644.000,0.300,3437.000,0.500,395.000,1.000,286.000,5.000,0
"07/07/06","14:13:14","AMMA06",39899.000,"cc",28284.356,6.00,2828.436,1,6,0.100,16909.000,0.200,18835.000,0.300,3477.000,0.500,407.000,1.000,271.000,5.000,0
"07/07/06","14:13:20","AMMA06",39983.000,"cc",28324.147,6.00,2832.415,1,6,0.100,17202.000,0.200,18616.000,0.300,3477.000,0.500,370.000,1.000,318.000,5.000,0
"07/07/06","14:13:26","AMMA06",40236.000,"cc",28338.455,6.00,2833.846,1,6,0.100,17107.000,0.200,18992.000,0.300,3488.000,0.500,380.000,1.000,269.000,5.000,0
"07/07/06","14:13:32","AMMA06",39716.000,"cc",28299.160,6.00,2829.916,1,6,0.100,16810.000,0.200,18781.000,0.300,3439.000,0.500,399.000,1.000,287.000,5.000,0
"07/07/06","14:13:38","AMMA06",39847.000,"cc",28298.961,6.00,2829.896,1,6,0.100,17002.000,0.200,18687.000,0.300,3462.000,0.500,401.000,1.000,295.000,5.000,0
"07/07/06","14:13:44","AMMA06",39827.000,"cc",28295.379,6.00,2829.538,1,6,0.100,17001.000,0.200,18779.000,0.300,3381.000,0.500,393.000,1.000,273.000,5.000,0
"07/07/06","14:13:50","AMMA06",39889.000,"cc",28341.004,6.00,2834.101,1,6,0.100,17005.000,0.200,18774.000,0.300,3417.000,0.500,408.000,1.000,285.000,5.000,0
"07/07/06","14:13:56","AMMA06",40150.000,"cc",28332.926,6.00,2833.293,1,6,0.100,16845.000,0.200,19008.000,0.300,3491.000,0.500,480.000,1.000,326.000,5.000,0
"07/07/06","14:14:02","AMMA06",39758.000,"cc",28294.955,6.00,2829.496,1,6,0.100,16762.000,0.200,18807.000,0.300,3509.000,0.500,417.000,1.000,263.000,5.000,0
"07/07/06","14:14:08","AMMA06",40123.000,"cc",28269.584,6.00,2826.959,1,6,0.100,16887.000,0.200,18937.000,0.300,3551.000,0.500,453.000,1.000,294.000,5.000,1.000
"07/07/06","14:14:14","AMMA06",39808.000,"cc",28340.602,6.00,2834.060,1,6,0.100,16766.000,0.200,19013.000,0.300,3379.000,0.500,369.000,1.000,281.000,5.000,0